Flag for Italy Weather past 2 weeks in Venice, Italy

Now
64 °F

Sunny.


Feels Like: 64 °F
Forecast: 53 / 62 °F
Wind: 6 mph from South

Location: Venice / Tessera

Current Time: Oct 24, 2014 at 12:42:46 PM

Latest Report: Oct 24, 2014 at 11:50 AM


Visibility: 10 mi

Pressure: 29.92 "Hg

Humidity: 56%

Dew point: 48 °F

Location of VeniceLocation

Historic Weather in Venice — Graph

°F

Venice temperature yesterday

Maximum temperature yesterday: 63 °F (at 1:20 PM)
Minimum temperature yesterday: 52 °F (at 8:50 AM)
Average temperature yesterday: 57 °F

Past Weeks' High & Low Weather Summary

 TemperatureHumidityPressure
High75 °F (Oct 17, 3:20 PM)100% (Oct 9, 11:20 AM)30.27 "Hg (Oct 9, 11:20 AM)
Low48 °F (Oct 24, 7:50 AM)19% (Oct 22, 3:20 PM)29.47 "Hg (Oct 22, 2:20 AM)
Average65 °F85%29.95 "Hg
* Reported Oct 9 11:20 AM — Oct 24 11:50 AM, Venice, Weather by CustomWeather, © 2014

Note: Actual official high and low records may vary slightly from our data, if they occured in-between our weather recording intervals... More about our weather records

Advertising

Venice weather history for previous 24 hours

 ConditionsComfort  
Time TempWeatherWind HumidityBarometerVisibility
11:50 AM
Oct 24
64 °FSunny.6 mph56%29.92 "Hg10 mi
11:20 AM64 °FSunny.1 mph56%29.92 "Hg10 mi
10:50 AM63 °FSunny.2 mph59%29.92 "Hg10 mi
10:20 AM61 °FSunny.1 mph68%29.92 "Hg10 mi
9:50 AM57 °FSunny.2 mph77%29.89 "Hg10 mi
9:20 AM54 °FSunny.3 mph88%29.89 "Hg10 mi
8:50 AM50 °FSunny.3 mph94%29.89 "Hg10 mi
8:20 AM50 °FClear.1 mph88%29.89 "Hg10 mi
7:50 AM48 °FClear.2 mph94%29.86 "Hg10 mi
7:20 AM50 °FClear.2 mph88%29.86 "Hg10 mi
6:50 AM52 °FClear.No wind82%29.86 "Hg10 mi
6:20 AM52 °FClear.No wind88%29.86 "Hg10 mi
5:50 AM52 °FClear.No wind88%29.86 "Hg10 mi
5:20 AM52 °FClear.No wind88%29.86 "Hg10 mi
4:50 AM54 °FClear.No wind82%29.83 "Hg10 mi
4:20 AM52 °FClear.No wind88%29.83 "Hg10 mi
3:50 AM52 °FClear.1 mph88%29.86 "Hg10 mi
3:20 AM52 °FClear.2 mph82%29.86 "Hg10 mi
2:50 AM52 °FClear.3 mph82%29.86 "Hg10 mi
2:20 AM54 °FClear.5 mph77%29.86 "Hg10 mi
1:50 AM54 °FClear.7 mph82%29.86 "Hg10 mi
1:20 AM54 °FClear.8 mph82%29.86 "Hg10 mi
12:50 AM54 °FClear.9 mph88%29.86 "Hg10 mi
12:20 AM54 °FClear.7 mph82%29.86 "Hg10 mi
11:50 PM
Oct 23
55 °FClear.7 mph77%29.86 "Hg10 mi
10:50 PM55 °FClear.7 mph82%29.86 "Hg10 mi
10:20 PM54 °FClear.5 mph82%29.83 "Hg10 mi
9:50 PM54 °FClear.2 mph82%29.83 "Hg10 mi
9:20 PM55 °FClear.3 mph82%29.83 "Hg10 mi
8:50 PM55 °FClear.2 mph82%29.83 "Hg10 mi
8:20 PM57 °FClear.2 mph77%29.83 "Hg10 mi
7:50 PM57 °FClear.No wind77%29.80 "Hg10 mi
7:20 PM59 °FClear.3 mph72%29.80 "Hg10 mi
6:50 PM59 °FSunny.7 mph68%29.80 "Hg10 mi
6:20 PM59 °FSunny.10 mph63%29.77 "Hg10 mi
5:50 PM61 °FSunny.9 mph59%29.80 "Hg10 mi
5:20 PM61 °FSunny.7 mph63%29.77 "Hg10 mi
4:50 PM63 °FSunny.8 mph52%29.77 "Hg10 mi
4:20 PM63 °FSunny.5 mph49%29.74 "Hg10 mi
3:50 PM63 °FSunny.7 mph49%29.74 "Hg10 mi
3:20 PM63 °FSunny.8 mph52%29.74 "Hg10 mi
2:50 PM63 °FPassing clouds.8 mph49%29.74 "HgN/A
2:20 PM61 °FPassing clouds.5 mph48%29.74 "HgN/A
1:50 PM61 °FPassing clouds.3 mph42%29.77 "HgN/A
1:20 PM63 °FSunny.3 mph45%29.74 "Hg10 mi
12:50 PM57 °FSunny.No wind55%29.77 "Hg10 mi
12:20 PM57 °FSunny.1 mph48%29.74 "Hg10 mi
Weather by CustomWeather, © 2014

See weather overviewHow to use our weather pages